Location: Affalterbach
(48.9215°N, 9.3228°E)
Time: 01:58:14
(UTC+00:00)

Daily predictions for brighter satellites

Satellite Brightness Start Highest point End
(mag) Time Altitude Azimuth Time Altitude Azimuth Time Altitude Azimuth
USA 234 4.1 03:05:56 10° ENE 03:10:26 41° NNE 03:10:26 41° NNE
Cosmos 2322 Rocket 4.4 03:19:55 16° NNE 03:21:20 17° NE 03:24:57 10° ENE
USA 59 Rocket 2.4 03:34:44 19° ESE 03:34:44 19° ESE 03:36:19 10° ESE
NOSS 3-1 (C) 4.3 03:34:05 51° N 03:35:23 57° NE 03:43:42 10° ESE
Cosmos 1833 Rocket 4.4 03:46:20 23° NNE 03:46:20 23° NNE 03:48:26 10° NNE
Timation 1 Rocket 4.5 03:48:09 69° SE 03:48:17 69° ESE 03:54:13 10° NE
SL-16 R/B 3.6 03:46:48 26° NNE 03:48:42 32° NE 03:53:45 10° ESE
Cosmos 2082 Rocket 2.9 03:49:32 35° SSE 03:51:30 51° ESE 03:56:55 10° NE
COSMOS 2455 2.8 03:58:09 77° NNE 03:58:27 79° NE 04:04:29 10° SE
NOSS 3-4 (A) 4.2 04:02:31 35° N 04:02:31 35° N 04:06:46 10° NE
ATLAS 3B R/B 4.2 03:59:03 25° NNW 04:01:09 28° N 04:07:39 10° ENE
NOSS 3-4 (C) 4.2 04:02:40 35° N 04:02:40 35° N 04:06:56 10° NE
Cosmos 1898 Rocket 3.7 04:02:27 66° NE 04:02:41 67° ENE 04:07:54 10° SSE
Cosmos 468 Rocket 4.0 04:10:58 77° NNE 04:10:58 77° NNE 04:15:49 10° NNE
Cosmos 1980 Rocket 3.1 04:14:14 33° SSW 04:14:14 33° SSW 04:17:28 10° S
Cosmos 2098 Rocket 4.3 04:15:58 44° SSW 04:15:58 44° SSW 04:19:58 10° S
Cosmos 2369 3.5 04:16:16 76° WNW 04:16:38 81° WSW 04:22:18 10° SSE
BREEZE-M DEB (TANK) 4.5 04:20:48 27° E 04:20:48 27° E 04:22:42 10° ENE
COSMO-SKYMED 1 3.3 04:17:34 10° SE 04:21:31 48° ENE 04:22:50 35° NNE
Aureole 1 Rocket 4.2 04:20:44 43° NW 04:23:14 70° WSW 04:30:40 10° S
SKYMED 2 3.6 04:19:25 10° SSE 04:23:44 76° ENE 04:24:01 72° NE
Tiangong 0.7 04:27:21 13° SSE 04:27:21 13° SSE 04:28:05 10° SSE
Cosmos 2180 Rocket 4.4 04:23:51 39° NNW 04:26:13 65° W 04:32:27 10° S
Cosmos 1937 Rocket 3.5 04:25:55 47° N 04:27:25 78° ENE 04:32:33 10° SSE
NOAA 12 4.5 04:23:59 10° NNE 04:29:16 64° ESE 04:34:29 10° S
SJ-11-01 4.1 04:25:27 10° NNE 04:30:10 84° WNW 04:34:51 10° SSW
Cosmos 220 Rocket 4.5 04:28:08 15° S 04:31:24 55° ESE 04:35:26 10° NNE
Cosmos 372 Rocket 3.9 04:33:38 58° SW 04:33:38 58° SW 04:38:17 10° S
Cosmos 2333 Rocket 2.9 04:33:56 21° NNW 04:37:45 52° NE 04:43:21 10° SE
NOSS 3-1 (A) 4.2 04:37:46 26° NNW 04:41:59 66° NE 04:50:33 10° SE
Cosmos 1606 Rocket 3.4 04:43:12 66° W 04:43:22 67° W 04:47:44 10° S
Cosmos 2360 Rocket 3.3 04:40:11 15° NNW 04:44:28 41° NE 04:49:45 10° ESE
Cosmos 2026 Rocket 4.3 04:41:24 10° S 04:47:23 66° E 04:53:26 10° NNE
USA 234 3.8 04:48:25 10° ENE 04:54:36 45° N 04:57:47 27° NW
Helios 1A Rocket 2.2 04:52:26 10° S 04:55:46 78° WSW 04:55:46 78° WSW
SeaSat 1 4.2 04:56:25 10° N 04:58:20 16° NNW 04:58:20 16° NNW
Cosmos 2219 Rocket 3.5 04:58:08 10° NNW 05:03:17 36° NE 05:08:28 10° ESE
SL-4 R/B 1.6 05:03:14 53° N 05:03:25 54° N 05:06:34 10° E
ATLAS 5 CENTAUR R/B 3.3 05:05:56 12° N 05:05:56 12° N 05:06:40 10° NNE
Cosmos 2322 Rocket 2.6 05:01:43 15° NNW 05:06:34 63° ENE 05:12:11 10° SE
Cosmos 1726 Rocket 3.7 05:08:07 31° NW 05:09:46 48° W 05:13:50 10° SSW
Meteor 1-26 Rocket 4.2 05:04:14 10° N 05:09:46 86° E 05:15:26 10° SSE
Cosmos 1092 Rocket 4.0 05:04:54 10° S 05:11:12 86° E 05:17:29 10° N
Meteor 2-3 Rocket 3.6 05:05:29 10° SSW 05:11:13 73° WNW 05:16:55 10° N
CZ-4 R/B 3.8 05:10:27 10° N 05:14:59 52° WNW 05:19:27 10° SW
Cosmos 489 Rocket 4.4 05:09:18 10° SW 05:15:33 63° WNW 05:21:48 10° NNE
Nadezhda 4 Rocket 4.2 05:10:16 10° SSW 05:16:19 47° WNW 05:22:23 10° N
NOSS 2-1 (D) 4.4 05:17:47 26° WSW 05:18:16 27° SW 05:22:12 10° S
CZ-2C R/B 4.4 05:15:11 10° NNW 05:16:11 13° NNW 05:16:11 13° NNW
USA 59 Rocket 1.1 05:20:26 23° WSW 05:20:56 24° WSW 05:24:45 10° S
Cosmos 841 Rocket 3.7 05:18:30 10° SW 05:23:33 48° WNW 05:28:39 10° NNE
COSMOS 2406 3.2 05:18:31 10° SW 05:24:08 64° WNW 05:29:48 10° NNE
Cosmos 2221 4.0 05:21:23 10° N 05:25:12 34° ENE 05:28:59 10° SE
NOSS 2-1 (E) 4.3 05:25:12 25° W 05:26:08 28° SW 05:30:07 10° S
NOSS 3-1 (C) 4.4 05:21:26 21° WNW 05:26:21 50° WSW 05:34:48 10° SSE
Cosmos 1626 Rocket 4.3 05:22:45 10° S 05:27:04 56° E 05:31:24 10° NNE
Cosmos 1833 Rocket 4.4 05:28:01 14° NW 05:28:15 14° NNW 05:31:15 10° N
Cosmos 1892 Rocket 3.7 05:25:59 10° SSW 05:30:11 47° WNW 05:34:28 10° N
COSMOS 2428 4.4 05:27:13 10° NNW 05:31:58 26° NE 05:36:42 10° E
SL-16 R/B 2.4 05:28:40 16° NW 05:33:03 53° WSW 05:38:32 10° S
Cosmos 2082 Rocket 2.8 05:31:29 13° WSW 05:35:47 33° NW 05:40:51 10° NNE
CZ-2D R/B 4.4 05:35:32 10° NNE 05:38:31 37° E 05:41:29 10° SSE
IRS-1D 4.2 05:37:38 10° N 05:41:57 30° WNW 05:46:19 10° WSW
Cosmos 1125 Rocket 4.5 05:37:26 10° NNW 05:42:32 46° ENE 05:47:33 10° SE
COSMOS 2455 4.1 05:41:19 17° WNW 05:43:43 22° WSW 05:48:08 10° SSW
NOSS 8 (A) 4.1 05:45:59 18° NW 05:47:58 80° NE 05:51:10 10° SE
Cosmos 405 Rocket 2.3 05:45:32 10° S 05:48:47 83° E 05:52:04 10° NNE
Orbus 7S? 2.4 05:47:32 20° NW 05:49:12 80° NE 05:52:03 10° ESE
ATLAS 3B R/B 3.8 05:46:24 10° NW 05:53:57 46° NNE 06:01:14 10° ESE
Cosmos-2242 3.5 05:50:12 10° NNW 05:54:06 36° W 05:57:56 10° SSW
Cosmos 2278 4.2 05:51:02 11° NW 05:56:04 41° WSW 06:01:17 10° S
COSMO-SKYMED 1 3.9 05:54:14 10° SW 05:57:06 18° W 05:59:09 13° WNW
Cosmos 1812 Rocket 3.8 05:53:06 10° N 05:57:26 73° E 06:01:45 10° SSE
Cosmos 1707 3.5 05:55:07 10° N 05:58:08 41° ENE 06:01:07 10° SSE
Cosmos 1437 Rocket 3.3 05:55:28 10° N 05:58:50 50° ENE 06:02:12 10° SSE
Cosmos 1484 Rocket 3.2 05:57:43 10° N 06:00:47 31° WNW 06:03:48 10° SW
Cosmos 2058 Rocket 3.9 05:57:19 10° NNW 06:01:12 30° W 06:05:02 10° SSW
Cosmos 1602 Rocket 3.8 06:00:34 10° S 06:04:58 75° E 06:09:26 10° NNE
Okean 1 4.1 06:03:59 10° NNW 06:06:58 25° W 06:09:57 10° SSW
CORIOLIS 4.1 06:06:13 10° NNE 06:11:36 77° WNW 06:16:59 10° SSW
SL-16 R/B 4.4 06:10:06 10° N 06:12:07 12° NNE 06:14:08 10° NE
ARIANE 5 R/B 2.7 06:07:45 10° NNE 06:12:59 83° ESE 06:18:13 10° SSW
Cosmos 2285 Rocket 4.2 06:07:51 10° NNW 06:14:04 58° WSW 06:20:18 10° S
ATLAS 2AS CENTAUR R/B 3.6 06:08:53 10° SSW 06:15:43 55° ESE 06:22:24 10° NE
SL-08 ROCKET BODY 4.4 06:10:51 10° SSW 06:16:38 62° WNW 06:22:27 10° N
SL-08 R/B 3.6 06:13:10 10° SSE 06:17:44 68° ENE 06:22:23 10° N
Cosmos 2333 Rocket 3.1 06:16:48 10° NW 06:21:47 31° WSW 06:26:44 10° SSW
Meteor 1-10 Rocket 4.4 06:16:04 10° NNW 06:22:00 88° W 06:27:56 10° S
SAR-Lupe-4 3.5 06:19:43 10° N 06:23:15 64° WNW 06:26:46 10° SSW
SMAP 3.2 06:19:37 10° N 06:24:11 54° WNW 06:28:42 10° SSW
Cosmos 1833 4.2 06:20:48 10° SSW 06:26:27 82° WNW 06:32:12 10° NNE
Cosmos 2360 Rocket 2.8 06:23:14 10° NW 06:28:25 39° WSW 06:33:33 10° S
Cosmos 2315 Rocket 4.2 06:22:57 10° N 06:29:22 85° E 06:35:42 10° S
Landsat 7 3.8 06:25:34 10° N 06:30:09 58° WNW 06:34:43 10° SSW
Meteor 1-19 Rocket 4.3 06:24:54 10° NNW 06:30:39 72° W 06:36:31 10° S
